map of OUD home
OUD - Airport
Location
City:  Oujda, Morocco
Name:Les Anglades Airport
ICAO:GMFO
IATA:OUD

Details
Type:Airport (Aerodrome, Airfield)
Use:Public/Civil, International (customs port of entry)
Latitude:3447'14"N (34.787150)
Longitude:155'26"W (-1.923985)
Datum:WGS 1984
Elevation:1535 ft (468 m)
Variation:0.14W (WMM2015 magnetic declination)
0.11 annual change
Runways:1
Longest:9843 × 148 ft (3000 × 45 m), paved

Time
Time Zone:UTC+0 (DST+1)
Local Time:

Weather
METAR:GMFO 231400Z 32015KT 9999 FEW026 SCT033TCU 29/16 Q1012 NOSIG
TAF:GMFO 231100Z 2312/2418 36016KT 9999 SCT033 PROB30
TEMPO 2317/2402 TSRA FEW040CB
BECMG 2408/2410 22016KT CAVOK

Related Locations
Nearby:
Farthest:NZOX: 12263 mi / 19735 km
Okiwi Station, AUK, NZ

Find:

   beyond  
but within

Other Information
Maps:
NOTAMs:
Links:
Sources:

  
flag of Morocco   

Sectional Chart

Flight Planning
at skyvector.com

Satellite Image

Google Maps Satellite view

 

Copyright © 2004-2018 Karl L. Swartz. All rights reserved.
The Great Circle Mapper name and logo are trademarks of the Great Circle Mapper.
All other trademarks mentioned herein belong to their respective owners.
Please see credits for attibutions and further copyright information.

  Follow gcmap on Facebook Follow gcmap on Twitter Follow gcmap on Google+ GCmap on LinkedIn

hCard Microformat

Geo Microformat